START_TIME,STEP,MOV.,AL01,t_acc.,AL02,t_acc.,E37,t_acc.,H21,t_acc.
1979-07-01 03:00:35.290 ,1,0,0.,24.0,0.,24.0,0.,24.0,0.,24.0
1979-07-01 03:00:59.290 ,2,1,0.,24.0,0.,24.0,0.,24.0,0.,24.0
1979-07-01 03:01:23.290 ,2,0,0.,24.0,0.,24.0,0.,24.0,0.,24.0
1979-07-01 03:01:47.290 ,3,1,0.,24.0,0.,24.0,1.,24.0,0.,24.0
1979-07-01 03:02:11.290 ,3,0,1.,24.0,0.,24.0,1.,24.0,0.,24.0
1979-07-01 03:02:35.290 ,4,1,0.,24.0,0.,24.0,0.,24.0,0.,24.0
1979-07-01 03:02:59.290 ,4,0,0.,24.0,0.,24.0,0.,24.0,0.,24.0
1979-07-01 03:03:23.290 ,5,1,0.,24.0,0.,24.0,0.,24.0,0.,24.0
1979-07-01 03:03:47.290 ,5,0,0.,24.0,0.,24.0,0.,24.0,0.,24.0
1979-07-01 03:04:11.290 ,6,1,0.,24.0,0.,24.0,0.,24.0,0.,24.0
1979-07-01 03:04:35.290 ,6,0,0.,24.0,0.,24.0,0.,24.0,0.,24.0
1979-07-01 03:04:59.290 ,7,1,6.,24.0,0.,24.0,1.,24.0,0.,24.0
1979-07-01 03:05:23.290 ,7,0,30.,24.0,0.,24.0,1.,24.0,0.,24.0
1979-07-01 03:05:47.290 ,7,1,37.,24.0,0.,24.0,0.,24.0,0.,24.0
1979-07-01 03:06:11.290 ,7,0,34.,24.0,0.,24.0,0.,24.0,0.,24.0
1979-07-01 03:06:35.290 ,6,1,26.,24.0,0.,24.0,0.,24.0,0.,24.0
1979-07-01 03:06:59.290 ,6,0,0.,24.0,0.,24.0,0.,24.0,0.,24.0
1979-07-01 03:07:23.290 ,5,1,0.,24.0,0.,24.0,1.,24.0,0.,24.0
1979-07-01 03:07:47.290 ,5,0,0.,24.0,0.,24.0,0.,24.0,0.,24.0
1979-07-01 03:08:11.290 ,4,1,1.,24.0,0.,24.0,0.,24.0,0.,24.0
1979-07-01 03:08:35.290 ,4,0,0.,24.0,0.,24.0,0.,24.0,0.,24.0
1979-07-01 03:08:59.290 ,3,1,0.,24.0,0.,24.0,1.,24.0,0.,24.0
1979-07-01 03:09:23.290 ,3,0,0.,24.0,0.,24.0,0.,24.0,0.,24.0
1979-07-01 03:09:47.290 ,2,1,0.,24.0,0.,24.0,0.,24.0,0.,24.0
1979-07-01 03:10:11.290 ,2,0,0.,24.0,0.,24.0,0.,24.0,0.,24.0
1979-07-01 03:10:35.290 ,1,1,0.,24.0,0.,24.0,0.,24.0,0.,24.0
1979-07-01 03:10:59.290 ,1,0,0.,24.0,0.,24.0,0.,24.0,0.,24.0
1979-07-01 03:11:23.290 ,0,1,0.,24.0,0.,24.0,0.,24.0,0.,24.0
1979-07-01 03:11:47.290 ,0,0,0.,24.0,0.,24.0,0.,24.0,0.,24.0
1979-07-01 03:12:11.290 ,0,1,0.,24.0,0.,24.0,0.,24.0,0.,24.0
1979-07-01 03:12:35.290 ,0,0,0.,24.0,0.,24.0,0.,24.0,0.,24.0
1979-07-01 03:12:59.290 ,1,1,0.,24.0,0.,24.0,0.,24.0,0.,24.0
1979-07-01 03:13:23.290 ,1,0,0.,24.0,1.,24.0,1.,24.0,0.,24.0
1979-07-01 03:13:47.290 ,2,1,0.,24.0,0.,24.0,2.,24.0,0.,24.0
1979-07-01 03:14:11.290 ,2,0,0.,24.0,0.,24.0,1.,24.0,0.,24.0
1979-07-01 03:14:35.290 ,3,1,1.,24.0,0.,24.0,0.,24.0,0.,24.0
1979-07-01 03:14:59.290 ,3,0,0.,24.0,0.,24.0,0.,24.0,0.,24.0
1979-07-01 03:15:23.290 ,4,1,0.,24.0,0.,24.0,0.,24.0,0.,24.0
1979-07-01 03:15:47.290 ,4,0,0.,24.0,0.,24.0,1.,24.0,0.,24.0
1979-07-01 03:16:11.290 ,5,1,0.,24.0,0.,24.0,0.,24.0,0.,24.0
1979-07-01 03:16:35.290 ,5,0,0.,24.0,0.,24.0,0.,24.0,0.,24.0
1979-07-01 03:16:59.290 ,6,1,0.,24.0,0.,24.0,0.,24.0,0.,24.0
1979-07-01 03:17:23.290 ,6,0,0.,24.0,0.,24.0,0.,24.0,0.,24.0
1979-07-01 03:17:47.290 ,7,1,5.,24.0,0.,24.0,0.,24.0,0.,24.0
1979-07-01 03:18:11.290 ,7,0,27.,24.0,1.,24.0,0.,24.0,0.,24.0
1979-07-01 03:18:35.290 ,7,1,33.,24.0,0.,24.0,1.,24.0,0.,24.0
1979-07-01 03:18:59.290 ,7,0,32.,24.0,0.,24.0,0.,24.0,0.,24.0
1979-07-01 03:19:23.290 ,6,1,18.,24.0,0.,24.0,0.,24.0,0.,24.0
1979-07-01 03:19:47.290 ,6,0,0.,24.0,0.,24.0,0.,24.0,0.,24.0
1979-07-01 03:20:11.290 ,5,1,0.,24.0,0.,24.0,0.,24.0,0.,24.0
1979-07-01 03:20:35.290 ,5,0,0.,24.0,0.,24.0,0.,24.0,0.,24.0
1979-07-01 03:20:59.290 ,4,1,0.,24.0,0.,24.0,0.,24.0,0.,24.0
1979-07-01 03:21:23.290 ,4,0,1.,24.0,0.,24.0,0.,24.0,0.,24.0
1979-07-01 03:21:47.290 ,3,1,0.,24.0,0.,24.0,0.,24.0,0.,24.0
1979-07-01 03:22:11.290 ,3,0,0.,24.0,0.,24.0,0.,24.0,0.,24.0
1979-07-01 03:22:35.290 ,2,1,0.,24.0,0.,24.0,0.,24.0,0.,24.0
1979-07-01 03:22:59.290 ,2,0,0.,24.0,0.,24.0,0.,24.0,0.,24.0
1979-07-01 03:23:23.290 ,1,1,0.,24.0,0.,24.0,0.,24.0,0.,24.0
1979-07-01 03:23:47.290 ,1,0,0.,24.0,0.,24.0,0.,24.0,0.,24.0
1979-07-01 03:24:11.290 ,0,1,0.,24.0,0.,24.0,1.,24.0,0.,24.0
1979-07-01 03:24:35.290 ,0,0,1.,24.0,0.,24.0,0.,24.0,0.,24.0
1979-07-01 03:24:59.290 ,0,1,0.,24.0,2.,24.0,1.,24.0,0.,24.0
1979-07-01 03:25:23.290 ,0,0,0.,24.0,0.,24.0,0.,24.0,0.,24.0
1979-07-01 03:25:47.290 ,1,1,0.,24.0,0.,24.0,0.,24.0,0.,24.0
1979-07-01 03:26:11.290 ,1,0,0.,24.0,0.,24.0,1.,24.0,0.,24.0
1979-07-01 03:26:35.290 ,2,1,1.,24.0,0.,24.0,1.,24.0,0.,24.0
1979-07-01 03:26:59.290 ,2,0,2.,24.0,0.,24.0,1.,24.0,0.,24.0
1979-07-01 03:27:23.290 ,3,1,0.,24.0,0.,24.0,1.,24.0,0.,24.0
1979-07-01 03:27:47.290 ,3,0,0.,24.0,0.,24.0,0.,24.0,0.,24.0
1979-07-01 03:28:11.290 ,4,1,0.,24.0,0.,24.0,0.,24.0,0.,24.0
1979-07-01 03:28:35.290 ,4,0,0.,24.0,0.,24.0,0.,24.0,0.,24.0
1979-07-01 03:28:59.290 ,5,1,0.,24.0,0.,24.0,0.,24.0,0.,24.0
1979-07-01 03:29:23.290 ,5,0,0.,24.0,0.,24.0,0.,24.0,0.,24.0
1979-07-01 03:29:47.290 ,6,1,0.,24.0,0.,24.0,0.,24.0,0.,24.0
1979-07-01 03:30:11.290 ,0,0,1.,24.0,0.,24.0,0.,24.0,0.,24.0
1979-07-01 03:30:40.090 ,7,0,7.,24.0,0.,24.0,0.,24.0,0.,24.0
1979-07-01 03:30:59.290 ,7,0,26.,24.0,0.,24.0,1.,24.0,0.,24.0
1979-07-01 03:31:23.290 ,5,1,12.,24.0,0.,24.0,0.,24.0,0.,24.0
1979-07-01 03:31:47.290 ,1,1,0.,24.0,0.,24.0,0.,24.0,0.,24.0
1979-07-01 03:32:11.290 ,2,1,0.,24.0,0.,24.0,0.,24.0,0.,24.0
1979-07-01 03:32:35.290 ,6,1,0.,24.0,0.,24.0,0.,24.0,0.,24.0
1979-07-01 03:32:59.290 ,5,1,17.,24.0,0.,24.0,0.,24.0,0.,24.0
1979-07-01 03:33:23.290 ,1,1,0.,24.0,0.,24.0,0.,24.0,0.,24.0
1979-07-01 03:33:47.290 ,2,1,0.,24.0,0.,24.0,0.,24.0,0.,24.0
1979-07-01 03:34:11.290 ,6,1,0.,24.0,0.,24.0,1.,24.0,0.,24.0
1979-07-01 03:34:35.290 ,5,1,18.,24.0,0.,24.0,0.,24.0,0.,24.0
1979-07-01 03:34:59.290 ,1,1,0.,24.0,0.,24.0,0.,24.0,0.,24.0
1979-07-01 03:35:23.290 ,2,1,0.,24.0,0.,24.0,0.,24.0,0.,24.0
1979-07-01 03:35:47.290 ,6,1,0.,24.0,0.,24.0,0.,24.0,0.,24.0
1979-07-01 03:36:11.290 ,5,1,19.,24.0,0.,24.0,0.,24.0,0.,24.0
1979-07-01 03:36:35.290 ,1,1,0.,24.0,0.,24.0,0.,24.0,0.,24.0
1979-07-01 03:36:59.290 ,2,1,0.,24.0,0.,24.0,0.,24.0,0.,24.0
1979-07-01 03:37:23.290 ,6,1,0.,24.0,0.,24.0,0.,24.0,0.,24.0
1979-07-01 03:37:47.290 ,5,1,11.,24.0,0.,24.0,0.,24.0,0.,24.0
1979-07-01 03:38:11.290 ,1,1,1.,24.0,0.,24.0,1.,24.0,0.,24.0
1979-07-01 03:38:35.290 ,2,1,0.,24.0,0.,24.0,0.,24.0,0.,24.0
1979-07-01 03:38:59.290 ,6,1,0.,24.0,0.,24.0,0.,24.0,0.,24.0
1979-07-01 03:39:23.290 ,5,1,14.,24.0,0.,24.0,1.,24.0,0.,24.0
1979-07-01 03:39:47.290 ,1,1,0.,24.0,0.,24.0,1.,24.0,0.,24.0
1979-07-01 03:40:11.290 ,2,1,0.,24.0,0.,24.0,0.,24.0,0.,24.0
1979-07-01 03:40:35.290 ,6,1,1.,24.0,0.,24.0,0.,24.0,0.,24.0
1979-07-01 03:40:59.290 ,5,1,11.,24.0,0.,24.0,1.,24.0,0.,24.0
1979-07-01 03:41:23.290 ,1,1,0.,24.0,1.,24.0,1.,24.0,0.,24.0
1979-07-01 03:41:47.290 ,0,0,0.,24.0,0.,24.0,1.,24.0,0.,24.0
1979-07-01 03:42:11.290 ,0,0,0.,24.0,0.,24.0,1.,24.0,0.,24.0
1979-07-01 03:42:35.290 ,5,1,19.,24.0,0.,24.0,0.,24.0,0.,24.0
1979-07-01 03:42:59.290 ,5,0,0.,24.0,0.,24.0,0.,24.0,0.,24.0
1979-07-01 03:43:23.290 ,4,1,0.,24.0,0.,24.0,0.,24.0,0.,24.0
1979-07-01 03:43:47.290 ,4,0,0.,24.0,0.,24.0,0.,24.0,0.,24.0
1979-07-01 03:44:11.290 ,3,1,0.,24.0,0.,24.0,0.,24.0,0.,24.0
1979-07-01 03:44:35.290 ,3,0,0.,24.0,0.,24.0,0.,24.0,0.,24.0
1979-07-01 03:44:59.290 ,2,1,0.,24.0,0.,24.0,0.,24.0,0.,24.0
1979-07-01 03:45:23.290 ,2,0,0.,24.0,0.,24.0,0.,24.0,0.,24.0
1979-07-01 03:45:47.290 ,1,1,2.,24.0,0.,24.0,1.,24.0,0.,24.0
1979-07-01 03:46:11.290 ,1,0,1.,24.0,0.,24.0,0.,24.0,0.,24.0
1979-07-01 03:46:35.290 ,0,1,0.,24.0,0.,24.0,0.,24.0,0.,24.0
1979-07-01 03:46:59.290 ,0,0,0.,24.0,0.,24.0,0.,24.0,0.,24.0
1979-07-01 03:47:23.290 ,0,1,0.,24.0,0.,24.0,1.,24.0,0.,24.0
1979-07-01 03:47:47.290 ,0,0,1.,24.0,0.,24.0,0.,24.0,0.,24.0
1979-07-01 03:48:11.290 ,1,1,0.,24.0,0.,24.0,0.,24.0,0.,24.0
1979-07-01 03:48:35.290 ,1,0,0.,24.0,1.,24.0,0.,24.0,0.,24.0
1979-07-01 03:48:59.290 ,2,1,0.,24.0,0.,24.0,1.,24.0,0.,24.0
1979-07-01 03:49:23.290 ,2,0,0.,24.0,0.,24.0,0.,24.0,0.,24.0
1979-07-01 03:49:47.290 ,3,1,0.,24.0,0.,24.0,1.,24.0,0.,24.0
1979-07-01 03:50:11.290 ,3,0,0.,24.0,0.,24.0,0.,24.0,0.,24.0
1979-07-01 03:50:35.290 ,4,1,1.,24.0,1.,24.0,1.,24.0,0.,24.0
1979-07-01 03:50:59.290 ,4,0,0.,24.0,0.,24.0,0.,24.0,0.,24.0
1979-07-01 03:51:23.290 ,5,1,0.,24.0,0.,24.0,0.,24.0,0.,24.0
1979-07-01 03:51:47.290 ,5,0,0.,24.0,0.,24.0,0.,24.0,0.,24.0
1979-07-01 03:52:11.290 ,6,1,0.,24.0,0.,24.0,1.,24.0,0.,24.0
1979-07-01 03:52:35.290 ,6,0,0.,24.0,0.,24.0,0.,24.0,0.,24.0
1979-07-01 03:52:59.290 ,7,1,8.,24.0,0.,24.0,1.,24.0,0.,24.0
1979-07-01 03:53:23.290 ,7,0,23.,24.0,0.,24.0,0.,24.0,0.,24.0
1979-07-01 03:53:47.290 ,7,1,31.,24.0,0.,24.0,0.,24.0,0.,24.0
1979-07-01 03:54:11.290 ,7,0,22.,24.0,0.,24.0,0.,24.0,0.,24.0
1979-07-01 03:54:35.290 ,6,1,24.,24.0,0.,24.0,0.,24.0,0.,24.0
1979-07-01 03:54:59.290 ,6,0,0.,24.0,0.,24.0,0.,24.0,0.,24.0
1979-07-01 03:55:23.290 ,5,1,0.,24.0,1.,24.0,1.,24.0,0.,24.0
1979-07-01 03:55:47.290 ,5,0,0.,24.0,0.,24.0,1.,24.0,0.,24.0
1979-07-01 03:56:11.290 ,4,1,0.,24.0,1.,24.0,0.,24.0,0.,24.0
1979-07-01 03:56:35.290 ,4,0,0.,24.0,0.,24.0,0.,24.0,0.,24.0
1979-07-01 03:56:59.290 ,3,1,0.,24.0,0.,24.0,0.,24.0,0.,24.0
1979-07-01 03:57:23.290 ,3,0,0.,24.0,0.,24.0,0.,24.0,0.,24.0
1979-07-01 03:57:47.290 ,2,1,0.,24.0,0.,24.0,0.,24.0,0.,24.0
1979-07-01 03:58:11.290 ,2,0,0.,24.0,1.,24.0,0.,24.0,0.,24.0
1979-07-01 03:58:35.290 ,1,1,0.,24.0,0.,24.0,0.,24.0,0.,24.0
1979-07-01 03:58:59.290 ,1,0,0.,24.0,0.,24.0,0.,24.0,0.,24.0
1979-07-01 03:59:23.290 ,0,1,0.,24.0,0.,24.0,2.,24.0,0.,24.0
1979-07-01 03:59:47.290 ,0,0,0.,24.0,0.,24.0,1.,24.0,0.,24.0
1979-07-01 04:00:11.290 ,0,1,0.,24.0,1.,24.0,0.,24.0,0.,24.0
1979-07-01 04:00:35.290 ,0,0,0.,24.0,0.,24.0,0.,24.0,0.,24.0
1979-07-01 04:00:59.290 ,1,1,2.,24.0,0.,24.0,0.,24.0,0.,24.0
1979-07-01 04:01:23.290 ,1,0,0.,24.0,0.,24.0,1.,24.0,0.,24.0
1979-07-01 04:01:47.290 ,2,1,0.,24.0,0.,24.0,0.,24.0,0.,24.0
1979-07-01 04:02:11.290 ,2,0,0.,24.0,0.,24.0,0.,24.0,0.,24.0
1979-07-01 04:02:35.290 ,3,1,0.,24.0,1.,24.0,0.,24.0,0.,24.0
1979-07-01 04:02:59.290 ,3,0,1.,24.0,0.,24.0,0.,24.0,0.,24.0
1979-07-01 04:03:23.290 ,4,1,1.,24.0,0.,24.0,1.,24.0,0.,24.0
1979-07-01 04:03:47.290 ,4,0,0.,24.0,0.,24.0,0.,24.0,0.,24.0
1979-07-01 04:04:11.290 ,5,1,0.,24.0,0.,24.0,0.,24.0,0.,24.0
1979-07-01 04:04:35.290 ,5,0,0.,24.0,0.,24.0,0.,24.0,0.,24.0
1979-07-01 04:04:59.290 ,6,1,0.,24.0,0.,24.0,1.,24.0,0.,24.0
1979-07-01 04:05:23.290 ,6,0,0.,24.0,0.,24.0,0.,24.0,0.,24.0
1979-07-01 04:05:47.290 ,7,1,10.,24.0,0.,24.0,0.,24.0,0.,24.0
1979-07-01 04:06:11.290 ,7,0,29.,24.0,0.,24.0,0.,24.0,0.,24.0
1979-07-01 04:06:35.290 ,7,1,38.,24.0,0.,24.0,0.,24.0,0.,24.0
1979-07-01 04:06:59.290 ,7,0,35.,24.0,0.,24.0,0.,24.0,0.,24.0
1979-07-01 04:07:23.290 ,6,1,30.,24.0,0.,24.0,0.,24.0,0.,24.0
1979-07-01 04:07:47.290 ,6,0,0.,24.0,0.,24.0,0.,24.0,0.,24.0
1979-07-01 04:08:11.290 ,5,1,0.,24.0,1.,24.0,0.,24.0,0.,24.0
1979-07-01 04:08:35.290 ,5,0,0.,24.0,0.,24.0,1.,24.0,0.,24.0
1979-07-01 04:08:59.290 ,4,1,0.,24.0,0.,24.0,0.,24.0,0.,24.0
1979-07-01 04:09:23.290 ,4,0,0.,24.0,0.,24.0,0.,24.0,0.,24.0
1979-07-01 04:09:47.290 ,3,1,0.,24.0,0.,24.0,2.,24.0,0.,24.0
1979-07-01 04:10:11.290 ,3,0,0.,24.0,1.,24.0,0.,24.0,0.,24.0
1979-07-01 04:10:35.290 ,2,1,0.,24.0,0.,24.0,0.,24.0,0.,24.0
1979-07-01 04:10:59.290 ,2,0,0.,24.0,0.,24.0,0.,24.0,0.,24.0
1979-07-01 04:11:23.290 ,1,1,0.,24.0,0.,24.0,0.,24.0,0.,24.0
1979-07-01 04:11:47.290 ,1,0,0.,24.0,0.,24.0,0.,24.0,0.,24.0
1979-07-01 04:12:11.290 ,0,1,0.,24.0,0.,24.0,1.,24.0,0.,24.0
1979-07-01 04:12:35.290 ,0,0,0.,24.0,0.,24.0,0.,24.0,0.,24.0
1979-07-01 04:12:59.290 ,0,1,0.,24.0,0.,24.0,0.,24.0,0.,24.0
1979-07-01 04:13:23.290 ,0,0,0.,24.0,0.,24.0,0.,24.0,0.,24.0
1979-07-01 04:13:47.290 ,1,1,0.,24.0,0.,24.0,0.,24.0,0.,24.0
1979-07-01 04:14:11.290 ,1,0,0.,24.0,0.,24.0,1.,24.0,0.,24.0
1979-07-01 04:14:35.290 ,2,1,0.,24.0,0.,24.0,0.,24.0,0.,24.0
1979-07-01 04:14:59.290 ,2,0,0.,24.0,0.,24.0,1.,24.0,0.,24.0
1979-07-01 04:15:23.290 ,3,1,0.,24.0,0.,24.0,0.,24.0,0.,24.0
1979-07-01 04:15:47.290 ,3,0,0.,24.0,0.,24.0,1.,24.0,0.,24.0
1979-07-01 04:16:11.290 ,4,1,0.,24.0,0.,24.0,1.,24.0,0.,24.0
1979-07-01 04:16:35.290 ,4,0,0.,24.0,1.,24.0,1.,24.0,0.,24.0
1979-07-01 04:16:59.290 ,5,1,0.,24.0,0.,24.0,0.,24.0,0.,24.0
1979-07-01 04:17:23.290 ,5,0,0.,24.0,0.,24.0,0.,24.0,0.,24.0
1979-07-01 04:17:47.290 ,6,1,1.,24.0,0.,24.0,1.,24.0,0.,24.0
1979-07-01 04:18:11.290 ,6,0,0.,24.0,0.,24.0,1.,24.0,0.,24.0
1979-07-01 04:18:35.290 ,7,0,8.,24.0,0.,24.0,0.,24.0,0.,24.0
1979-07-01 04:18:59.290 ,7,0,39.,24.0,0.,24.0,0.,24.0,0.,24.0
1979-07-01 04:19:23.290 ,5,1,8.,24.0,0.,24.0,0.,24.0,0.,24.0
1979-07-01 04:19:47.290 ,1,1,1.,24.0,0.,24.0,0.,24.0,0.,24.0
1979-07-01 04:20:11.290 ,2,1,0.,24.0,0.,24.0,1.,24.0,0.,24.0
1979-07-01 04:20:35.290 ,6,1,1.,24.0,0.,24.0,0.,24.0,0.,24.0
1979-07-01 04:20:59.290 ,5,1,18.,24.0,0.,24.0,0.,24.0,0.,24.0
1979-07-01 04:21:23.290 ,1,1,1.,24.0,0.,24.0,0.,24.0,0.,24.0
1979-07-01 04:21:47.290 ,2,1,0.,24.0,0.,24.0,0.,24.0,0.,24.0
1979-07-01 04:22:11.290 ,6,1,0.,24.0,0.,24.0,0.,24.0,0.,24.0
1979-07-01 04:22:35.290 ,5,1,18.,24.0,0.,24.0,0.,24.0,0.,24.0
1979-07-01 04:22:59.290 ,1,1,0.,24.0,0.,24.0,0.,24.0,0.,24.0
1979-07-01 04:23:23.290 ,2,1,0.,24.0,0.,24.0,1.,24.0,0.,24.0
1979-07-01 04:23:47.290 ,6,1,0.,24.0,0.,24.0,0.,24.0,0.,24.0
1979-07-01 04:24:11.290 ,5,1,17.,24.0,0.,24.0,0.,24.0,0.,24.0
1979-07-01 04:24:35.290 ,1,1,0.,24.0,0.,24.0,0.,24.0,0.,24.0
1979-07-01 04:24:59.290 ,2,1,0.,24.0,0.,24.0,0.,24.0,0.,24.0
1979-07-01 04:25:23.290 ,6,1,0.,24.0,0.,24.0,0.,24.0,0.,24.0
1979-07-01 04:25:47.290 ,5,1,14.,24.0,0.,24.0,0.,24.0,0.,24.0
1979-07-01 04:26:11.290 ,1,1,0.,24.0,1.,24.0,0.,24.0,0.,24.0
1979-07-01 04:26:35.290 ,2,1,1.,24.0,0.,24.0,0.,24.0,0.,24.0
1979-07-01 04:26:59.290 ,6,1,0.,24.0,0.,24.0,0.,24.0,0.,24.0
1979-07-01 04:27:23.290 ,5,1,22.,24.0,0.,24.0,1.,24.0,0.,24.0
1979-07-01 04:27:47.290 ,1,1,0.,24.0,0.,24.0,0.,24.0,0.,24.0
1979-07-01 04:28:11.290 ,2,1,0.,24.0,0.,24.0,0.,24.0,0.,24.0
1979-07-01 04:28:35.290 ,6,1,0.,24.0,0.,24.0,0.,24.0,0.,24.0
1979-07-01 04:28:59.290 ,5,1,19.,24.0,0.,24.0,0.,24.0,0.,24.0
1979-07-01 04:29:23.290 ,1,1,0.,24.0,0.,24.0,1.,24.0,0.,24.0
1979-07-01 04:29:47.290 ,0,0,1.,24.0,0.,24.0,0.,24.0,0.,24.0
1979-07-01 04:30:11.290 ,0,0,0.,24.0,0.,24.0,1.,24.0,0.,24.0
1979-07-01 04:30:35.290 ,5,1,15.,24.0,0.,24.0,0.,24.0,0.,24.0
1979-07-01 04:30:59.290 ,5,0,0.,24.0,0.,24.0,0.,24.0,0.,24.0
1979-07-01 04:31:23.290 ,4,1,1.,24.0,0.,24.0,0.,24.0,0.,24.0
1979-07-01 04:31:47.290 ,4,0,0.,24.0,0.,24.0,0.,24.0,0.,24.0
1979-07-01 04:32:11.290 ,3,1,0.,24.0,0.,24.0,0.,24.0,0.,24.0
1979-07-01 04:32:35.290 ,3,0,0.,24.0,0.,24.0,0.,24.0,0.,24.0
1979-07-01 04:32:59.290 ,2,1,0.,24.0,0.,24.0,1.,24.0,0.,24.0
1979-07-01 04:33:23.290 ,2,0,0.,24.0,0.,24.0,0.,24.0,0.,24.0
1979-07-01 04:33:47.290 ,1,1,0.,24.0,0.,24.0,0.,24.0,0.,24.0
1979-07-01 04:34:11.280 ,1,0,0.,24.0,0.,24.0,0.,24.0,0.,24.0
1979-07-01 04:34:35.290 ,0,1,0.,24.0,0.,24.0,0.,24.0,0.,24.0
1979-07-01 04:34:59.290 ,0,0,0.,24.0,0.,24.0,2.,24.0,0.,24.0
1979-07-01 04:35:23.290 ,0,1,0.,24.0,0.,24.0,0.,24.0,0.,24.0
1979-07-01 04:35:47.290 ,0,0,0.,24.0,0.,24.0,0.,24.0,0.,24.0
1979-07-01 04:36:11.290 ,1,1,0.,24.0,0.,24.0,0.,24.0,0.,24.0
1979-07-01 04:36:35.290 ,1,0,0.,24.0,0.,24.0,0.,24.0,0.,24.0
1979-07-01 04:36:59.290 ,2,1,0.,24.0,0.,24.0,0.,24.0,0.,24.0
1979-07-01 04:37:23.290 ,2,0,0.,24.0,0.,24.0,0.,24.0,0.,24.0
1979-07-01 04:37:47.290 ,3,1,0.,24.0,0.,24.0,2.,24.0,0.,24.0
1979-07-01 04:38:11.290 ,3,0,0.,24.0,0.,24.0,0.,24.0,0.,24.0
1979-07-01 04:38:35.290 ,4,1,0.,24.0,0.,24.0,0.,24.0,0.,24.0
1979-07-01 04:38:59.290 ,4,0,0.,24.0,0.,24.0,0.,24.0,0.,24.0
1979-07-01 04:39:23.290 ,5,1,1.,24.0,0.,24.0,1.,24.0,0.,24.0
1979-07-01 04:39:47.290 ,5,0,0.,24.0,0.,24.0,0.,24.0,0.,24.0
1979-07-01 04:40:11.290 ,6,1,0.,24.0,0.,24.0,0.,24.0,0.,24.0
1979-07-01 04:40:35.290 ,6,0,0.,24.0,0.,24.0,0.,24.0,0.,24.0
1979-07-01 04:40:59.290 ,7,1,4.,24.0,0.,24.0,0.,24.0,0.,24.0
1979-07-01 04:41:23.290 ,7,0,33.,24.0,0.,24.0,0.,24.0,0.,24.0
1979-07-01 04:41:47.290 ,7,1,28.,24.0,0.,24.0,0.,24.0,0.,24.0
1979-07-01 04:42:11.290 ,7,0,36.,24.0,0.,24.0,0.,24.0,0.,24.0
1979-07-01 04:42:35.290 ,6,1,20.,24.0,0.,24.0,0.,24.0,0.,24.0
1979-07-01 04:42:59.290 ,6,0,0.,24.0,0.,24.0,0.,24.0,0.,24.0
1979-07-01 04:43:23.290 ,5,1,1.,24.0,0.,24.0,1.,24.0,0.,24.0
1979-07-01 04:43:47.290 ,5,0,1.,24.0,0.,24.0,0.,24.0,0.,24.0
1979-07-01 04:44:11.290 ,4,1,0.,24.0,0.,24.0,0.,24.0,0.,24.0
1979-07-01 04:44:35.290 ,4,0,0.,24.0,0.,24.0,0.,24.0,0.,24.0
1979-07-01 04:44:59.290 ,3,1,0.,24.0,0.,24.0,0.,24.0,0.,24.0
1979-07-01 04:45:23.290 ,3,0,1.,24.0,0.,24.0,0.,24.0,0.,24.0
1979-07-01 04:45:47.290 ,2,1,0.,24.0,0.,24.0,0.,24.0,0.,24.0
1979-07-01 04:46:11.290 ,2,0,0.,24.0,0.,24.0,0.,24.0,0.,24.0
1979-07-01 04:46:35.290 ,1,1,1.,24.0,0.,24.0,0.,24.0,0.,24.0
1979-07-01 04:46:59.290 ,1,0,0.,24.0,0.,24.0,0.,24.0,0.,24.0
1979-07-01 04:47:23.290 ,0,1,0.,24.0,0.,24.0,0.,24.0,0.,24.0
1979-07-01 04:47:47.290 ,0,0,1.,24.0,0.,24.0,0.,24.0,0.,24.0
1979-07-01 04:48:11.290 ,0,1,0.,24.0,0.,24.0,0.,24.0,0.,24.0
1979-07-01 04:48:35.290 ,0,0,0.,24.0,0.,24.0,0.,24.0,0.,24.0
1979-07-01 04:48:59.290 ,1,1,0.,24.0,0.,24.0,0.,24.0,0.,24.0
1979-07-01 04:49:23.290 ,1,0,0.,24.0,0.,24.0,0.,24.0,0.,24.0
1979-07-01 04:49:47.290 ,2,1,0.,24.0,0.,24.0,1.,24.0,0.,24.0
1979-07-01 04:50:11.290 ,2,0,0.,24.0,1.,24.0,0.,24.0,0.,24.0
1979-07-01 04:50:35.280 ,3,1,0.,24.0,1.,24.0,0.,24.0,0.,24.0
1979-07-01 04:50:59.280 ,3,0,0.,24.0,1.,24.0,0.,24.0,0.,24.0
1979-07-01 04:51:23.280 ,4,1,0.,24.0,0.,24.0,0.,24.0,0.,24.0
1979-07-01 04:51:47.280 ,4,0,0.,24.0,1.,24.0,0.,24.0,0.,24.0
1979-07-01 04:52:11.280 ,5,1,0.,24.0,0.,24.0,0.,24.0,0.,24.0
1979-07-01 04:52:35.280 ,5,0,0.,24.0,0.,24.0,0.,24.0,0.,24.0
1979-07-01 04:52:59.280 ,6,1,0.,24.0,0.,24.0,1.,24.0,0.,24.0
1979-07-01 04:53:23.280 ,6,0,0.,24.0,0.,24.0,0.,24.0,0.,24.0
1979-07-01 04:53:47.280 ,7,1,5.,24.0,0.,24.0,0.,24.0,0.,24.0
1979-07-01 04:54:11.280 ,7,0,37.,24.0,0.,24.0,1.,24.0,0.,24.0
1979-07-01 04:54:35.280 ,7,1,40.,24.0,0.,24.0,0.,24.0,0.,24.0
1979-07-01 04:54:59.280 ,7,0,27.,24.0,1.,24.0,0.,24.0,0.,24.0
1979-07-01 04:55:23.280 ,6,1,25.,24.0,0.,24.0,0.,24.0,0.,24.0
1979-07-01 04:55:47.280 ,6,0,0.,24.0,0.,24.0,0.,24.0,0.,24.0
1979-07-01 04:56:11.280 ,5,1,0.,24.0,0.,24.0,1.,24.0,0.,24.0
1979-07-01 04:56:35.280 ,5,0,1.,24.0,0.,24.0,0.,24.0,0.,24.0
1979-07-01 04:56:59.280 ,4,1,0.,24.0,0.,24.0,1.,24.0,0.,24.0
1979-07-01 04:57:23.280 ,4,0,0.,24.0,0.,24.0,0.,24.0,0.,24.0
1979-07-01 04:57:47.280 ,3,1,0.,24.0,0.,24.0,0.,24.0,0.,24.0
1979-07-01 04:58:11.280 ,3,0,0.,24.0,0.,24.0,0.,24.0,0.,24.0
1979-07-01 04:58:35.280 ,2,1,0.,24.0,1.,24.0,0.,24.0,0.,24.0
1979-07-01 04:58:59.280 ,2,0,0.,24.0,0.,24.0,0.,24.0,0.,24.0
1979-07-01 04:59:23.280 ,1,1,0.,24.0,0.,24.0,0.,24.0,0.,24.0
1979-07-01 04:59:47.280 ,1,0,0.,24.0,0.,24.0,0.,24.0,0.,24.0
1979-07-01 05:00:11.280 ,0,1,2.,24.0,0.,24.0,0.,24.0,0.,24.0
1979-07-01 05:00:35.280 ,0,0,0.,24.0,0.,24.0,0.,24.0,0.,24.0
1979-07-01 05:00:59.280 ,0,1,0.,24.0,0.,24.0,1.,24.0,0.,24.0
1979-07-01 05:01:23.280 ,0,0,1.,24.0,0.,24.0,0.,24.0,0.,24.0
1979-07-01 05:01:47.280 ,1,1,0.,24.0,0.,24.0,0.,24.0,0.,24.0
1979-07-01 05:02:11.280 ,1,0,0.,24.0,0.,24.0,0.,24.0,0.,24.0
1979-07-01 05:02:35.280 ,2,1,0.,24.0,0.,24.0,0.,24.0,0.,24.0
1979-07-01 05:02:59.280 ,2,0,0.,24.0,0.,24.0,0.,24.0,0.,24.0
1979-07-01 05:03:23.280 ,3,1,0.,24.0,0.,24.0,0.,24.0,0.,24.0
1979-07-01 05:03:47.280 ,3,0,1.,24.0,0.,24.0,0.,24.0,0.,24.0
1979-07-01 05:04:11.280 ,4,1,1.,24.0,1.,24.0,0.,24.0,0.,24.0
1979-07-01 05:04:35.280 ,4,0,0.,24.0,1.,24.0,0.,24.0,0.,24.0
1979-07-01 05:04:59.280 ,5,1,0.,24.0,0.,24.0,0.,24.0,0.,24.0
1979-07-01 05:05:23.280 ,5,0,0.,24.0,0.,24.0,1.,24.0,0.,24.0
1979-07-01 05:05:47.280 ,6,1,0.,24.0,0.,24.0,0.,24.0,0.,24.0
1979-07-01 05:06:11.280 ,6,0,0.,24.0,0.,24.0,0.,24.0,0.,24.0
1979-07-01 05:06:35.280 ,7,0,10.,24.0,0.,24.0,0.,24.0,0.,24.0
1979-07-01 05:06:59.280 ,7,0,28.,24.0,0.,24.0,0.,24.0,0.,24.0
1979-07-01 05:07:23.280 ,5,1,14.,24.0,0.,24.0,0.,24.0,0.,24.0
1979-07-01 05:07:47.280 ,1,1,0.,24.0,0.,24.0,0.,24.0,0.,24.0
1979-07-01 05:08:11.280 ,2,1,0.,24.0,0.,24.0,0.,24.0,0.,24.0
1979-07-01 05:08:35.280 ,6,1,1.,24.0,0.,24.0,0.,24.0,0.,24.0
1979-07-01 05:08:59.280 ,5,1,19.,24.0,0.,24.0,0.,24.0,0.,24.0
1979-07-01 05:09:23.280 ,1,1,1.,24.0,0.,24.0,0.,24.0,0.,24.0
1979-07-01 05:09:47.280 ,2,1,0.,24.0,0.,24.0,0.,24.0,0.,24.0
1979-07-01 05:10:11.280 ,6,1,0.,24.0,0.,24.0,0.,24.0,0.,24.0
1979-07-01 05:10:35.280 ,5,1,24.,24.0,0.,24.0,0.,24.0,0.,24.0
1979-07-01 05:10:59.280 ,1,1,0.,24.0,0.,24.0,1.,24.0,0.,24.0
1979-07-01 05:11:23.280 ,2,1,0.,24.0,0.,24.0,0.,24.0,0.,24.0
1979-07-01 05:11:47.280 ,6,1,0.,24.0,0.,24.0,0.,24.0,0.,24.0
1979-07-01 05:12:11.280 ,5,1,19.,24.0,1.,24.0,0.,24.0,0.,24.0
1979-07-01 05:12:35.280 ,0,0,0.,24.0,0.,24.0,0.,24.0,0.,24.0
1979-07-01 05:12:59.280 ,0,0,0.,24.0,0.,24.0,0.,24.0,0.,24.0
1979-07-01 05:13:23.280 ,6,1,0.,24.0,0.,24.0,0.,24.0,0.,24.0
1979-07-01 05:13:47.280 ,5,1,10.,24.0,0.,24.0,0.,24.0,0.,24.0
1979-07-01 05:14:11.280 ,1,1,0.,24.0,0.,24.0,0.,24.0,0.,24.0
1979-07-01 05:14:35.280 ,2,1,0.,24.0,0.,24.0,1.,24.0,0.,24.0
1979-07-01 05:14:59.280 ,6,1,0.,24.0,0.,24.0,0.,24.0,0.,24.0
1979-07-01 05:15:23.280 ,5,1,12.,24.0,0.,24.0,0.,24.0,0.,24.0
1979-07-01 05:15:47.280 ,1,1,0.,24.0,0.,24.0,0.,24.0,0.,24.0
1979-07-01 05:16:11.280 ,2,1,0.,24.0,0.,24.0,1.,24.0,0.,24.0
1979-07-01 05:16:35.280 ,6,1,0.,24.0,0.,24.0,0.,24.0,0.,24.0
1979-07-01 05:16:59.280 ,5,1,7.,24.0,0.,24.0,0.,24.0,0.,24.0
1979-07-01 05:17:23.280 ,1,1,0.,24.0,1.,24.0,0.,24.0,0.,24.0
1979-07-01 05:17:47.280 ,0,0,0.,24.0,0.,24.0,0.,24.0,0.,24.0
1979-07-01 05:18:11.280 ,0,0,0.,24.0,0.,24.0,0.,24.0,0.,24.0
1979-07-01 05:18:35.280 ,5,1,18.,24.0,0.,24.0,0.,24.0,0.,24.0
1979-07-01 05:18:59.280 ,5,0,0.,24.0,0.,24.0,0.,24.0,0.,24.0
1979-07-01 05:19:23.280 ,4,1,0.,24.0,0.,24.0,0.,24.0,0.,24.0
1979-07-01 05:19:47.280 ,4,0,0.,24.0,0.,24.0,1.,24.0,0.,24.0
1979-07-01 05:20:11.280 ,3,1,1.,24.0,0.,24.0,0.,24.0,0.,24.0
1979-07-01 05:20:35.280 ,3,0,0.,24.0,1.,24.0,0.,24.0,0.,24.0
1979-07-01 05:20:59.280 ,2,1,0.,24.0,0.,24.0,0.,24.0,0.,24.0
1979-07-01 05:21:23.280 ,2,0,0.,24.0,0.,24.0,0.,24.0,0.,24.0
1979-07-01 05:21:47.280 ,1,1,0.,24.0,0.,24.0,0.,24.0,0.,24.0
1979-07-01 05:22:11.280 ,1,0,0.,24.0,0.,24.0,0.,24.0,0.,24.0
1979-07-01 05:22:35.280 ,0,1,1.,24.0,0.,24.0,0.,24.0,0.,24.0
1979-07-01 05:22:59.280 ,0,0,0.,24.0,0.,24.0,1.,24.0,0.,24.0
1979-07-01 05:23:23.280 ,0,1,0.,24.0,0.,24.0,0.,24.0,0.,24.0
1979-07-01 05:23:47.280 ,0,0,0.,24.0,0.,24.0,0.,24.0,0.,24.0
1979-07-01 05:24:11.280 ,1,1,1.,24.0,0.,24.0,0.,24.0,0.,24.0
1979-07-01 05:24:35.280 ,1,0,1.,24.0,1.,24.0,0.,24.0,0.,24.0
1979-07-01 05:24:59.280 ,2,1,0.,24.0,0.,24.0,1.,24.0,0.,24.0
1979-07-01 05:25:23.280 ,2,0,1.,24.0,0.,24.0,0.,24.0,0.,24.0
1979-07-01 05:25:47.280 ,3,1,1.,24.0,0.,24.0,0.,24.0,0.,24.0
1979-07-01 05:26:11.280 ,3,0,0.,24.0,0.,24.0,1.,24.0,0.,24.0
1979-07-01 05:26:35.280 ,4,1,0.,24.0,0.,24.0,0.,24.0,0.,24.0
1979-07-01 05:26:59.280 ,4,0,1.,24.0,0.,24.0,0.,24.0,0.,24.0
1979-07-01 05:27:23.280 ,5,1,0.,24.0,0.,24.0,0.,24.0,0.,24.0
1979-07-01 05:27:47.280 ,5,0,0.,24.0,0.,24.0,0.,24.0,0.,24.0
1979-07-01 05:28:11.280 ,6,1,1.,24.0,0.,24.0,0.,24.0,0.,24.0
1979-07-01 05:28:35.280 ,6,0,0.,24.0,0.,24.0,0.,24.0,0.,24.0
1979-07-01 05:28:59.280 ,7,1,7.,24.0,0.,24.0,0.,24.0,0.,24.0
1979-07-01 05:29:23.280 ,7,0,36.,24.0,0.,24.0,0.,24.0,0.,24.0
1979-07-01 05:29:47.280 ,7,1,27.,24.0,0.,24.0,0.,24.0,0.,24.0
1979-07-01 05:30:11.280 ,7,0,36.,24.0,0.,24.0,0.,24.0,0.,24.0
1979-07-01 05:30:35.280 ,6,1,27.,24.0,0.,24.0,0.,24.0,0.,24.0
1979-07-01 05:30:59.280 ,6,0,0.,24.0,0.,24.0,0.,24.0,0.,24.0
1979-07-01 05:31:23.280 ,5,1,0.,24.0,0.,24.0,0.,24.0,0.,24.0
1979-07-01 05:31:47.280 ,5,0,0.,24.0,0.,24.0,0.,24.0,0.,24.0
1979-07-01 05:32:11.280 ,4,1,0.,24.0,0.,24.0,0.,24.0,0.,24.0
1979-07-01 05:32:35.280 ,4,0,2.,24.0,0.,24.0,0.,24.0,0.,24.0
1979-07-01 05:32:59.280 ,3,1,1.,24.0,0.,24.0,0.,24.0,0.,24.0
1979-07-01 05:33:23.280 ,3,0,0.,24.0,0.,24.0,0.,24.0,0.,24.0
1979-07-01 05:33:47.280 ,2,1,0.,24.0,0.,24.0,0.,24.0,0.,24.0
1979-07-01 05:34:11.280 ,2,0,0.,24.0,0.,24.0,0.,24.0,0.,24.0